星链-35532(STARLINK-35532)

导读

STARLINK-35532是美国SpaceX星链互联网星座中的一颗卫星,于2025年10月19日发射升空,星链项目旨在为全球提供覆盖广泛的高速卫星互联网服务,该卫星加入后将进一步完善星链星座的组网布局,提升星座服务的覆盖容量与稳定性,助力推进全球网络覆盖,尤其为偏远地区等网络覆盖薄弱区域提供网络接入支持。

Basic Information
目录编号:
66091
目录名称:
STARLINK-35532
国际标识:
2025-236F
轨道中心:
EARTH
卫星名称:
星链-35532
卫星全名:
星链-35532(STARLINK-35532)
卫星状态:
在轨 (已飞行320 天)
发射日期:
2025-10-19 UTC
国别 :
美国 (US)
星等 :
--
Orbit Information
数据来源 国际轨道数据
星历时间: 2026-09-03T16:15:05+0800
19小时前
查看轨道信息
半长轴: 6840.867km
偏心率: 0.000121
轨道倾角: 53.160°
近地点辐角 79.202°
升交点赤经 358.018°
平近点角 280.912°
近地点: 461.902km
远地点: 463.558km
周期: 93.848分钟
每日圈数: 15.343911
Detailed Information
固有亮度:
5
最大亮度:
2.5
卫星平台:
Starlink V1.0
覆盖范围:
全球
运营商:
太空探索技术公司
运营商所在国:
美国
制造商(研发单位):
太空探索技术公司
制造商所在国:
美国
使用方式:
暂无
Satellite Introduction
Starlink 计划是 SpaceX 推出的全球卫星互联网项目,通过发射低轨道卫星,为全球尤其是偏远地区提供高速、低延迟的互联网服务。自 2019 年起,Starlink 已部署数千颗卫星,旨在缩小全球数字鸿沟,推动互联网普及。该项目还为军事、航空等行业提供通信支持,带来广泛经济效益。
2D Orbit Map
3D Orbit Map
Orbit Altitude Analysis Chart
Orbit Inclination Analysis Chart
Orbit Comprehensive Analysis Chart
View Comprehensive Chart
Conjunction Data List
Event ID Objects TCA Miss Dist (km) Collision Risk Probability Collision Risk Index (CRI) Action
CDM_260904-202905-288006-609121
2026-09-04T
20:29:13+0000
0.291 km
中距离
3.931419E-4 高风险 0.87
CDM_260905-025606-609106-807521
2026-09-05T
02:56:52+0000
0.330 km
远距离
3.177307E-4 高风险 0.85
CDM_260905-012306-609106-807521
2026-09-05T
01:23:05+0000
0.421 km
远距离
1.983657E-4 高风险 0.81
CDM_260905-014006-092306-609121
2026-09-05T
01:40:17+0000
0.988 km
远距离
2.474425E-5 中风险 0.63
CDM_260904-101905-288006-609122
2026-09-04T
10:19:34+0000
0.973 km
远距离
1.821868E-5 中风险 0.6
CDM_260905-043006-609106-807521
2026-09-05T
04:30:39+0000
1.061 km
极远距离
1.329662E-5 中风险 0.57
CDM_260904-234906-609106-807521
2026-09-04T
23:49:17+0000
1.175 km
极远距离
9.340062E-6 低风险 0.54
CDM_260905-060406-609106-807521
2026-09-05T
06:04:27+0000
1.784 km
极远距离
2.46045E-6 低风险 0.43
CDM_260904-221506-609106-807521
2026-09-04T
22:15:30+0000
1.941 km
极远距离
1.9652E-6 低风险 0.41
CDM_260904-084505-288006-609121
2026-09-04T
08:45:47+0000
1.973 km
极远距离
1.914952E-6 低风险 0.41